DG4DAA-13 Weather Reports


time (UTC)temp
C
wind
direction
speed
KPH
gust
KPH
rain 1hr
cm
rain 24hr
cm
rain mn
cm
humidity
%
barometer
mb
20260506113817 7 285 0.0 1.6 0.10 4.17 2.79 94 1009.5
20260506110817 7 281 0.0 0.0 0.13 4.34 2.74 94 1009.4
20260506103820 7 281 0.0 1.6 0.10 4.29 2.69 94 1009.3
20260506103817 7 281 0.0 1.6 0.10 4.29 2.69 94 1009.3
20260506100817 8 270 0.0 0.0 0.03 4.22 2.62 93 1009.0
20260506093817 8 311 0.0 3.2 0.03 4.19 2.59 93 1008.8
20260506090818 8 306 0.0 1.6 0.08 4.19 2.59 93 1008.4
20260506083818 9 259 0.0 0.0 0.13 4.17 2.57 94 1008.1
20260506080818 8 270 0.0 0.0 0.13 4.11 2.51 94 1008.0
20260506070818 8 281 0.0 0.0 0.25 3.99 2.39 94 1007.7
20260506060818 8 304 0.0 0.0 0.13 3.73 2.13 94 1007.4
20260506050823 8 4 0.0 0.0 0.30 3.61 2.01 94 1007.4
20260506050818 8 4 0.0 0.0 0.30 3.61 2.01 94 1007.4
20260506043832 8 304 0.0 0.0 0.13 3.38 1.78 94 1007.4
20260506043818 8 304 0.0 0.0 0.13 3.38 1.78 94 1007.4
20260506040818 9 276 0.0 0.0 0.13 3.30 1.70 94 1007.3
20260506033818 9 10 0.0 1.6 0.13 3.25 1.65 93 1007.3
20260506030818 9 273 0.0 1.6 0.13 3.17 1.57 93 1007.4
20260506023818 10 332 0.0 0.0 0.25 3.12 1.52 93 1007.7
20260506020818 10 337 0.0 0.0 0.33 3.05 1.45 94 1007.8
20260506013818 10 24 0.0 0.0 0.25 2.87 1.27 93 1008.0
20260506010818 10 280 0.0 3.2 0.25 2.72 1.12 93 1008.0
20260506003838 10 319 0.0 0.0 0.36 2.62 1.02 93 1008.2
20260506003819 10 319 0.0 0.0 0.36 2.62 1.02 93 1008.2
20260506000819 11 4 0.0 0.0 0.41 2.46 0.86 93 1008.4
20260505233841 11 229 0.0 0.0 0.38 2.26 0.66 93 1008.8
20260505233819 11 229 0.0 0.0 0.38 2.26 0.66 93 1008.8
20260505230819 11 271 0.0 0.0 0.43 2.06 0.46 93 1009.0
20260505223830 11 324 0.0 0.0 0.41 1.88 0.28 93 1009.2
20260505223819 11 324 0.0 0.0 0.41 1.88 0.28 93 1009.2
20260505220830 11 261 0.0 0.0 0.46 1.68 0.05 93 1009.3
20260505220819 11 261 0.0 0.0 0.46 1.68 0.05 93 1009.3
20260505213819 11 281 0.0 0.0 0.46 1.50 1.50 92 1009.5
20260505210819 11 169 0.0 0.0 0.30 1.24 1.22 92 1009.6
20260505203853 11 278 0.0 0.0 0.36 1.07 1.04 91 1009.8
20260505203819 11 278 0.0 0.0 0.36 1.07 1.04 91 1009.8
20260505200819 11 250 0.0 0.0 0.36 0.94 0.91 90 1009.8
20260505193819 11 263 0.0 0.0 0.28 0.71 0.69 89 1009.9
20260505190827 11 31 0.0 0.0 0.15 0.61 0.56 88 1009.9
20260505190819 11 31 0.0 0.0 0.15 0.61 0.56 88 1009.9
20260505183819 12 247 0.0 0.0 0.00 0.46 0.41 87 1009.9
20260505180819 12 271 0.0 0.0 0.00 0.48 0.41 87 1010.0
20260505173819 12 263 0.0 0.0 0.00 0.48 0.41 86 1009.9
20260505170819 12 234 0.0 0.0 0.00 0.56 0.41 85 1010.0
20260505163819 13 25 0.0 1.6 0.00 0.56 0.41 85 1010.1
20260505160820 13 333 0.0 0.0 0.00 0.56 0.41 85 1010.2
20260505150820 13 335 0.0 1.6 0.00 0.56 0.41 87 1010.4
20260505123820 13 259 0.0 0.0 0.33 0.51 0.36 89 1011.1
20260505120823 13 34 0.0 1.6 0.23 0.41 0.25 89 1011.2